Location: Wapato
(46.4478°N, 120.4212°W)
Time: 07:27:00
(UTC+00:00)

AO-27 - Visible Passes

Search period start: 11 June 2026 00:00
Search period end: 21 June 2026 00:00
Orbit: 782 x 795 km, 98.7° (Epoch: 10 June)

Date Brightness Start Highest point End Pass type
(mag) Time Alt. Az. Time Alt. Az. Time Alt. Az.
11 Jun 8.0 04:51:04 10° SE 04:56:04 52° ENE 05:01:06 10° N visible
11 Jun 9.5 06:31:44 10° SW 06:35:48 23° W 06:39:52 10° NW visible
12 Jun 8.6 06:01:22 13° SSW 06:05:35 41° W 06:10:30 10° NNW visible
13 Jun 7.8 05:31:01 14° S 05:35:32 75° WSW 05:40:44 10° NNW visible
14 Jun 7.8 05:00:40 11° SSE 05:05:36 62° ENE 05:10:44 10° N visible
14 Jun 9.7 06:41:51 10° SW 06:45:28 19° W 06:49:06 10° NW visible
15 Jun 8.5 04:31:08 10° SE 04:35:48 35° ENE 04:40:28 10° N visible
15 Jun 8.9 06:11:00 12° SSW 06:15:13 34° W 06:19:56 10° NNW visible
16 Jun 8.0 05:40:39 14° S 05:45:07 62° WSW 05:50:16 10° NNW visible
17 Jun 7.7 05:10:18 12° SSE 05:15:09 75° ENE 05:20:20 10° N visible
17 Jun 9.9 06:52:05 10° SW 06:55:09 16° W 06:58:14 10° NW visible
18 Jun 8.3 04:40:28 10° SE 04:45:18 42° ENE 04:50:09 10° N visible
18 Jun 9.2 06:20:39 11° SSW 06:24:52 28° W 06:29:19 10° NW visible
19 Jun 8.3 05:50:18 13° S 05:54:43 51° W 05:59:46 10° NNW visible
20 Jun 7.7 05:19:58 12° SSE 05:24:42 89° ENE 05:29:54 10° NNW visible
20 Jun 10.0 07:02:34 10° WSW 07:04:51 13° W 07:07:07 10° WNW visible
